LiveATC.Net - Listen to live air traffic control over the Internet!


ICAO: KBJI  IATA: BJI   Airport: Bemidji Regional Airport
City: Bemidji   State/Province: Minnesota
Country: United States   Continent: North America
KBJI METAR Weather: KBJI 210055Z AUTO 36005KT 10SM BKN110 13/07 A2975 RMK AO2 T01250067
KBJI Flight Activity (FlightAware)
KBJI Airport Info   (iFlightPlanner)
KBJI VFR Sectional Chart   (iFlightPlanner) 
KBJI IFR Low Chart   (iFlightPlanner) 

KBJI CTAF/ZMP
Feed Status: UP   Listeners: 0
Listen in your browser - HTML5 player (in browser, HTML5)
Click here to listen with your own player (launches your MP3 player)
KBJI CTAF/ZMP Audio Archives
FacilityFrequency
Bemidji CTAF122.800
Minneapolis Center (Sector 25 Low/High)134.750

NOTICE

Unauthorized use prohibited. See LiveATC.net Terms of Service


Find LiveATC Audio Streams


Airport/ARTCC Code

Frequency Search
(e.g., 124.400, 128.75)
Site-wide search
 


Browse LiveATC Feeds
Top 50 LiveATC Feeds
LiveATC Feed Map
Bad Weather Areas

LiveATC FAQ
Offer LiveATC feed
Contact LiveATC.net
Press Inquiries

LiveATC on iPhone
LiveATC on Android

Windows Phone
Windows 8/10

LiveATC Mobile
(Mobile browser)

ATC Audio Archives
Interesting Recordings

LiveATC Forums


Home Page
About LiveATC.net
Make a Donation
Terms of Use
Privacy Policy

Canadian Air Freqs

AIRMETs/SIGMETs

FAA Airport Status
Nat'l Airspace Status
Arrival Demand Charts


Server Software By:
Icecast.org
Liquidsoap